,

(GMT )
Culdrose

Weather History for EGDR - July, 2014

Change the Weather History Date:

Sunday, July 27, 2014

  Actual Average Record
Temperature  
Mean Temperature 64 °F -  
Max Temperature 69 °F 64 °F 71 °F (2001)
Min Temperature 59 °F 55 °F 51 °F (2008)
Growing Degree Days 14 (Base 50)    
Moisture  
Dew Point 58 °F    
Average Humidity 75    
Maximum Humidity 94    
Minimum Humidity 51    
Precipitation  
Precipitation 0.00 in - - ()
Sea Level Pressure  
Sea Level Pressure 30.12 in    
Wind  
Wind Speed 8 mph ()    
Max Wind Speed 13 mph    
Max Gust Speed -    
Visibility 9.1 miles    
Events      
Averages and records for this station are not official NWS values.
T = Trace of Precipitation, MM = Missing Value Source: Averaged Metar Reports

Daily Weather History Graph

Daily Weather History Graph

Search for Another Location

Airport or City:

Trip Planner

Search our weather history database for the weather conditions in past years. The results will help you decide how hot, cold, wet, or windy it might be!

Date:

Astronomy

Jul. 27, 2014 Rise Set
Actual Time 5:42 AM BST 9:11 PM BST
Civil Twilight 5:03 AM BST 9:50 PM BST
Nautical Twilight 4:09 AM BST 10:43 PM BST
Astronomical Twilight 2:55 AM BST 11:56 PM BST
Moon 6:27 AM BST (7/27) 8:59 PM BST (7/27)
Length of Visible Light 16h 47m
Length of Day
15h 28m
New Moon, 0% of the Moon is Illuminated
Jul 27
New Moon
Aug 4
First Quarter
Aug 10
Full
Aug 17
Last Quarter
Aug 25
New

Hourly Weather History & Observations

Time (BST) Temp. Dew Point Humidity Pressure Visibility Wind Dir Wind Speed Gust Speed Precip Events Conditions
12:00 AM 66 °F 63 °F 85% 30.12 in 6 mi NW 6.9 mph - -   Haze
12:50 AM 66.2 °F 62.6 °F 88% 30.12 in 6.2 mi NW 8.1 mph - N/A   Haze
1:00 AM 66 °F 62 °F 85% 30.12 in 7 mi NW 8.1 mph - -   Haze
1:50 AM 64.4 °F 62.6 °F 94% 30.09 in 6.2 mi NW 4.6 mph - N/A   Haze
2:00 AM 65 °F 62 °F 88% 30.11 in 7 mi NW 4.6 mph - -   Haze
2:50 AM 64.4 °F 60.8 °F 88% 30.09 in 6.2 mi NW 6.9 mph - N/A   Haze
3:00 AM 64 °F 61 °F 88% 30.11 in 10 mi NW 6.9 mph - -   Haze
3:50 AM 64.4 °F 60.8 °F 88% 30.09 in 6.2 mi NW 6.9 mph - N/A   Haze
4:00 AM 64 °F 61 °F 86% 30.11 in 10 mi NW 6.9 mph - -   Haze
4:50 AM 62.6 °F 60.8 °F 94% 30.09 in 6.2 mi NW 10.4 mph - N/A   Haze
5:00 AM 63 °F 61 °F 89% 30.12 in 10 mi NW 10.4 mph - -   Haze
5:50 AM 62.6 °F 60.8 °F 94% 30.09 in 6.2 mi North 6.9 mph - N/A   Haze
6:00 AM 63 °F 60 °F 88% 30.12 in 11 mi North 6.9 mph - -   Haze
6:50 AM 64.4 °F 59.0 °F 83% 30.12 in 6.2 mi North 10.4 mph - N/A   Haze
7:00 AM 64 °F 59 °F 80% 30.13 in 11 mi North 10.4 mph - -   Haze
7:50 AM 64.4 °F 60.8 °F 88% 30.12 in 6.2 mi NNW 8.1 mph - N/A   Mostly Cloudy
8:00 AM 65 °F 60 °F 80% 30.14 in 11 mi NNW 8.1 mph - -   Haze
8:50 AM 66.2 °F 60.8 °F 83% 30.12 in 6.2 mi NNW 9.2 mph - N/A   Mostly Cloudy
9:00 AM 66 °F 60 °F 77% 30.14 in 12 mi NNW 9.2 mph - -   Scattered Clouds
9:50 AM 66.2 °F 59.0 °F 78% 30.12 in 6.2 mi NNW 9.2 mph - N/A   Mostly Cloudy
10:00 AM 66 °F 59 °F 70% 30.14 in 16 mi NNW 9.2 mph - -   Scattered Clouds
10:50 AM 68.0 °F 57.2 °F 68% 30.12 in 6.2 mi NNW 10.4 mph - N/A   Mostly Cloudy
11:00 AM 68 °F 58 °F 61% 30.14 in 16 mi NNW 10.4 mph - -   Partly Cloudy
11:50 AM 68.0 °F 57.2 °F 68% 30.12 in 6.2 mi NNW 11.5 mph - N/A   Mostly Cloudy
12:00 PM 69 °F 57 °F 57% 30.14 in 14 mi NNW 11.5 mph - -   Partly Cloudy
12:50 PM 68.0 °F 57.2 °F 68% 30.12 in 6.2 mi NNW 10.4 mph - N/A   Overcast
1:00 PM 69 °F 58 °F 59% 30.14 in 16 mi NNW 10.4 mph - -   Overcast
1:50 PM 68.0 °F 55.4 °F 64% 30.12 in 6.2 mi NW 9.2 mph - N/A   Mostly Cloudy
2:00 PM 68 °F 56 °F 56% 30.14 in 16 mi NW 9.2 mph - -   Partly Cloudy
2:50 PM 68.0 °F 55.4 °F 64% 30.12 in 6.2 mi NW 10.4 mph - N/A   Mostly Cloudy
3:00 PM 69 °F 55 °F 51% 30.14 in 16 mi NW 10.4 mph - -   Partly Cloudy
3:50 PM 66.2 °F 55.4 °F 68% 30.12 in 6.2 mi WNW 12.7 mph - N/A   Partly Cloudy
4:00 PM 66 °F 56 °F 61% 30.13 in 16 mi WNW 12.7 mph - -   Scattered Clouds
4:50 PM 66.2 °F 55.4 °F 68% 30.12 in 6.2 mi NW 11.5 mph - N/A   Mostly Cloudy
5:00 PM 66 °F 55 °F 59% 30.13 in 14 mi NW 11.5 mph - -   Scattered Clouds
5:50 PM 66.2 °F 53.6 °F 64% 30.12 in 6.2 mi NW 11.5 mph - N/A   Mostly Cloudy
6:00 PM 66 °F 54 °F 56% 30.12 in 12 mi NW 11.5 mph - -   Scattered Clouds
6:50 PM 64.4 °F 55.4 °F 73% 30.12 in 6.2 mi NW 11.5 mph - N/A   Mostly Cloudy
7:00 PM 64 °F 54 °F 63% 30.12 in 12 mi NW 11.5 mph - -   Scattered Clouds
7:50 PM 64.4 °F 55.4 °F 73% 30.09 in 6.2 mi NW 12.7 mph - N/A   Mostly Cloudy
8:00 PM 65 °F 55 °F 61% 30.12 in 12 mi NW 12.7 mph - -   Scattered Clouds
8:50 PM 62.6 °F 55.4 °F 77% 30.09 in 6.2 mi WNW 6.9 mph - N/A   Mostly Cloudy
9:00 PM 63 °F 55 °F 68% 30.11 in 12 mi WNW 6.9 mph - -   Scattered Clouds
9:50 PM 60.8 °F 55.4 °F 82% 30.09 in 6.2 mi WNW 6.9 mph - N/A   Haze
10:00 PM 62 °F 55 °F 73% 30.12 in 11 mi WNW 6.9 mph - -   Haze
10:50 PM 60.8 °F 55.4 °F 82% 30.09 in 6.2 mi WNW 6.9 mph - N/A   Scattered Clouds
11:00 PM 60 °F 56 °F 81% 30.11 in 12 mi WNW 6.9 mph - -   Partly Cloudy
11:50 PM 59.0 °F 55.4 °F 88% 30.09 in 6.2 mi West 4.6 mph - N/A   Haze